#timestamp,LO_Frequency,Hit,StdDev 
1511474415.2,286047012.0,N
1511474435.1,286047010.2,N
1511474436.0,286047010.2,N
1511474455.8,286047006.4,N
1511474475.6,286047010.1,N
1511474495.5,286047010.0,N
1511474515.3,286047008.2,N
1511474535.1,286047010.2,N
1511474555.9,286047009.4,N
1511474575.7,286047006.5,N
1511474595.5,286047001.4,N
1511474615.4,286047005.8,N
1511474635.2,286047004.8,N
1511474655.0,286047008.5,N
1511474655.9,286047008.5,N
1511474675.8,286047008.2,N
1511474695.6,286047010.8,N
1511474715.4,286047008.3,N
1511474735.2,286047003.8,N
1511474755.1,286047001.9,N
1511474756.0,286047001.9,N
1511474775.8,286047002.0,N
1511474795.6,286047003.8,N
1511474815.5,286047004.3,N
1511474835.3,286047002.5,N
1511474855.1,286046999.6,N
1511474875.9,286047000.7,N
1511474895.7,286047003.6,N
1511474915.5,286047003.7,N
1511474935.4,286047000.8,N
1511474955.2,286046996.3,N
1511474975.0,286046990.2,N
1511474975.9,286046990.2,N
1511474995.8,286046988.2,N
1511475015.6,286046984.7,N
1511475035.4,286046979.4,Y
1511475055.3,286046973.2,P
1511475075.1,286046969.9,N
1511475076.0,286046969.9,N
1511475095.8,286046970.8,N
1511475115.7,286046966.2,N
1511475135.5,286046969.1,N
1511475155.3,286046970.5,N
1511475175.1,286046968.0,N
1511475195.9,286046964.8,Y
1511475215.7,286046990.8,P
1511475235.6,286046991.0,N
1511475255.4,286046989.6,N
1511475275.2,286046985.6,N
1511475295.0,286046982.5,N
1511475295.9,286046982.5,N
1511475315.8,286046980.5,Y
1511475335.6,286047001.9,P
1511475355.4,286047001.5,N
1511475375.3,286047001.7,N
1511475395.1,286047002.0,N
1511475415.8,286046997.1,N
1511475435.7,286046995.8,N
1511475455.5,286046994.8,N
1511475475.3,286046990.6,N
1511475495.2,286046987.4,N
1511475515.9,286046988.2,N
1511475535.7,286046984.5,N
1511475555.6,286046982.7,N
1511475575.4,286046984.8,N
1511475595.2,286046986.4,N
1511475615.1,286046985.9,N
1511475616.0,286046985.9,N
1511475635.8,286046982.1,N
1511475655.6,286046983.8,N
1511475675.4,286046985.8,N
1511475695.3,286046984.9,N
1511475715.1,286046984.3,N
1511475735.8,286046987.6,N
1511475755.7,286046990.9,N
1511475775.5,286046995.2,N
1511475795.3,286046999.5,N
1511475815.2,286046996.3,N
1511475835.9,286047001.0,N
1511475855.7,286046999.9,N
1511475875.6,286047005.9,N
1511475895.4,286047006.6,N
1511475915.2,286047007.9,N
1511475935.0,286047009.5,N
1511475936.0,286047009.5,N
1511475955.8,286047012.5,N
1511475975.6,286047015.6,N
1511475995.4,286047015.6,N
1511476015.3,286047012.8,N
1511476035.1,286047012.7,N
1511476055.8,286047013.1,N
1511476075.7,286047013.2,N
1511476095.5,286047016.7,N
1511476115.3,286047018.2,N
1511476135.2,286047016.1,N
1511476155.9,286047020.3,N
1511476175.7,286047026.2,N
1511476195.6,286047031.4,N
1511476215.4,286047033.8,N
1511476235.2,286047041.5,Y
1511476255.1,286047040.6,P
1511476256.0,286047040.6,N
1511476275.8,286047039.7,N
1511476295.6,286047042.2,N
1511476315.5,286047045.6,Y
1511476335.3,286047020.4,P
1511476355.1,286047020.8,P
1511476375.9,286047021.3,P
1511476395.7,286047015.8,N
1511476415.5,286047016.9,N
1511476435.4,286047018.3,Y
1511476455.2,286046993.4,P
1511476475.0,286046995.0,N
1511476475.9,286046995.0,N
1511476495.8,286046993.5,N
1511476515.6,286046992.5,N
1511476535.4,286046990.1,N
1511476555.2,286046990.7,N
1511476575.1,286046985.4,N
1511476576.0,286046985.4,N
1511476595.8,286046987.6,N
1511476615.6,286046986.9,N
1511476635.5,286046986.6,N
1511476655.3,286046982.9,N
1511476675.1,286046977.8,N
1511476695.9,286046976.7,N
1511476715.7,286046973.3,N
1511476735.5,286046972.4,N
1511476755.4,286046971.8,N
1511476775.2,286046971.6,N
1511476795.0,286046971.0,N
1511476795.9,286046971.0,N
1511476815.8,286046971.0,N
1511476835.6,286046977.1,N
1511476855.4,286046978.8,N
1511476875.2,286046976.7,N
1511476895.1,286046978.6,N
1511476896.0,286046978.6,N
1511476915.8,286046979.8,N
1511476935.6,286046979.8,N
1511476955.5,286046977.0,N
1511476975.3,286046972.2,Y
1511476995.1,286046986.3,P
1511477015.9,286046983.8,P
1511477035.7,286046982.4,P
1511477055.5,286046978.5,Y
1511477075.4,286046990.8,P
1511477095.2,286046987.9,P
1511477115.0,286046985.4,P
1511477116.0,286046985.4,Y
1511477135.8,286046997.1,P
1511477155.6,286046997.3,N
1511477175.4,286046995.1,N
1511477195.3,286046998.9,N
1511477215.1,286047000.0,N
1511477235.8,286046999.5,N
1511477255.7,286046994.9,N
1511477275.5,286046991.5,N
1511477295.3,286046986.9,Y
1511477315.2,286046993.5,P
1511477335.9,286046993.7,P
1511477355.7,286046997.5,N
1511477375.6,286046999.5,N
1511477395.4,286047004.1,N
1511477415.2,286047009.2,N
1511477435.1,286047004.1,N
1511477436.0,286047004.1,N
1511477455.8,286047003.9,N
1511477475.6,286047003.8,N
1511477495.4,286047006.7,N
1511477515.3,286047011.6,N
1511477535.1,286047013.1,N
1511477555.8,286047011.9,N
1511477575.7,286047010.6,N
1511477595.5,286047011.4,N
1511477615.3,286047011.9,N
1511477635.2,286047009.5,N
1511477655.9,286047010.7,N
1511477675.7,286047013.0,N
1511477695.6,286047019.6,Y
1511477715.4,286047015.3,P
1511477735.2,286047012.3,N
1511477755.1,286047004.9,N
1511477756.0,286047004.9,N
1511477775.8,286047016.1,Y
1511477795.6,286047012.2,P
1511477815.5,286047010.5,P
1511477835.3,286047005.3,P
1511477855.1,286047007.1,N
1511477875.9,286047007.1,N
1511477895.7,286047001.5,N
1511477915.5,286047002.0,N
1511477935.4,286047005.4,N
1511477955.2,286047007.5,N
1511477975.0,286047003.6,N
1511477975.9,286047003.6,N
1511477995.8,286047001.9,N
